SB KEPS @ AMSAT $ORB26122.1 2Line Orbital Elements 26122.AMSAT QST de W1STR AMSAT Orbital Elements for Amateur Satellites in TLE Format From Orbital Analysis Office New England Sci-Tech STEM Education Center Natick MA May 02, 2026 To all radio amateurs These element sets describe the orbits of various satellites in use by the amateur radio community. For details see: www.amsat.org/keplerian-elements-formats/ A daily update of element sets is available at: www.amsat.org/tle/daily-bulletin.txt or without bulletin text: www.amsat.org/tle/dailytle.txt AO-07 1 07530U 74089B 26121.80806831 -.00000040 00000-0 42536-4 0 9998 2 07530 101.9925 134.5678 0012012 218.2463 327.7219 12.53697377354700 UO-11 1 14781U 84021B 26121.83950492 .00001415 00000-0 15000-3 0 9998 2 14781 97.8026 87.9459 0007241 349.6382 10.4685 14.90671734250223 AO-27 1 22825U 93061C 26121.64011266 .00000119 00000-0 62282-4 0 9991 2 22825 98.6899 189.0650 0007480 231.9380 128.1128 14.30929389700349 FO-29 1 24278U 96046B 26121.87906338 .00000004 00000-0 40781-4 0 9992 2 24278 98.5293 337.0804 0349231 216.4774 141.2112 13.53272104466904 GO-32 1 25397U 98043D 26121.70386215 .00000073 00000-0 51782-4 0 9991 2 25397 99.0062 113.2936 0001557 33.8743 326.2534 14.24419135444714 ISS 1 25544U 98067A 26121.81277072 .00006771 00000-0 13067-3 0 9997 2 25544 51.6311 169.6452 0007227 12.7206 347.3964 15.49051775564564 NO-44 1 26931U 01043C 26121.85152201 .00000133 00000-0 80635-4 0 9998 2 26931 67.0525 4.1167 0006433 263.8840 96.1529 14.31937781283812 SO-50 1 27607U 02058C 26121.76023788 .00001348 00000-0 17601-3 0 9994 2 27607 64.5517 272.6163 0075624 270.9121 88.3321 14.82944454257571 CO-55 1 27844U 03031E 26121.46227727 .00000347 00000-0 16912-3 0 9997 2 27844 98.6752 130.6070 0008831 327.8386 32.2254 14.24306365185026 RS-22 1 27939U 03042A 26121.83956793 .00001656 00000-0 26362-3 0 9991 2 27939 98.3462 304.8926 0012436 58.9185 54.1927 14.73385930208728 CO-65 1 32785U 08021C 26121.90443942 .00005970 00000-0 38135-3 0 9997 2 32785 97.8252 102.3843 0008966 175.5552 184.5757 15.09008623978218 CO-66 1 32791U 08021J 26121.56275772 .00022570 00000-0 75104-3 0 9992 2 32791 97.7523 117.2965 0005097 106.0694 254.1108 15.31153336980150 RS-30 1 32953U 08025A 26121.74308865 .00000002 00000-0 -58333-4 0 9999 2 32953 82.5084 24.3274 0020587 53.7260 306.5718 12.43177606813928 SRMSAT 1 37841U 11058D 26121.85573730 .00000426 00000-0 87716-4 0 9993 2 37841 19.9735 339.9056 0011754 54.6214 46.4285 14.11564891751264 ZACUBE-1 1 39417U 13066B 26121.80967616 .00006214 00000-0 48428-3 0 9997 2 39417 97.8127 83.8968 0043489 48.7116 311.7839 15.00811372673777 Delfi-N3xt 1 39428U 13066N 26121.52118360 .00011024 00000-0 96933-3 0 9991 2 39428 97.8352 41.8941 0075452 3.6030 356.5717 14.94510293667656 GOMX-1 1 39430U 13066Q 26121.81077569 .00002045 00000-0 31383-3 0 9992 2 39430 97.6514 325.1963 0127747 226.0567 133.0044 14.69281691663106 LO-74 1 39440U 13066AA 26121.83674549 .00003148 00000-0 29572-3 0 9998 2 39440 97.8881 70.6420 0057831 179.6191 180.5082 14.93428707670079 AO-73 1 39444U 13066AE 26121.84349704 .00010118 00000-0 63631-3 0 9994 2 39444 97.8255 92.3523 0036832 4.9308 355.2275 15.08858428672678 DTUSAT-2 1 40030U 14033W 26121.73101152 .00009952 00000-0 54522-3 0 9996 2 40030 98.0866 116.5341 0009000 43.7342 316.4600 15.14400733645653 LILACSAT-2 1 40908U 15049K 26121.80969427 .00021072 00000-0 37782-3 0 9999 2 40908 97.4711 156.9283 0008580 70.7558 289.4620 15.49918044588567 Horyu-4 1 41340U 16012D 26121.09148188 .00175964 00000-0 11298-2 0 9998 2 41340 30.9896 58.4346 0006374 284.2293 75.7655 15.74589796563346 Lapan A3 1 41603U 16040E 26121.84513076 .00004494 00000-0 14401-3 0 9995 2 41603 97.1486 119.5264 0010482 171.1026 189.0405 15.32803924547710 CAS-2T 1 41847U 16066G 26121.83332906 .00000667 00000-0 10397-3 0 9991 2 41847 98.3829 198.0928 0340904 270.2163 85.9975 14.44575023498103 TechnoSat 1 42829U 17042E 26121.70230829 .00003873 00000-0 27879-3 0 9999 2 42829 97.4239 281.1529 0016026 250.3882 109.5615 15.04675574479711 AO-91 1 43017U 17073E 26121.89134051 .00009897 00000-0 43565-3 0 9995 2 43017 97.4771 350.0723 0154279 128.0253 233.5021 15.11871502458397 S-Net D 1 43186U 18014G 26121.80999712 .00006019 00000-0 31449-3 0 9993 2 43186 97.5403 26.8985 0008509 167.0535 193.0918 15.16233809451738 S-Net B 1 43187U 18014H 26121.68855345 .00006347 00000-0 33170-3 0 9990 2 43187 97.5406 26.7630 0009238 164.1992 195.9531 15.16202737451719 S-Net A 1 43188U 18014J 26121.67711179 .00006529 00000-0 34075-3 0 9993 2 43188 97.5417 26.9519 0009150 164.5905 195.5608 15.16239989451711 S-Net C 1 43189U 18014K 26121.69217316 .00006300 00000-0 32925-3 0 9999 2 43189 97.5432 27.0343 0010680 159.1435 201.0235 15.16194040450260 Ten-Koh 1 43677U 18084G 26121.78240795 .00002430 00000-0 18675-3 0 9991 2 43677 98.0787 312.1973 0007352 274.2309 85.8074 15.02743963409193 PO-101 1 43678U 18084H 26121.81824497 .00003684 00000-0 29929-3 0 9999 2 43678 98.1068 316.0500 0012818 330.5412 29.5087 15.00222860409263 QO-100 1 43700U 18090A 26120.49191795 .00000147 00000-0 00000-0 0 9990 2 43700 0.0137 266.9736 0001700 165.7205 348.6817 1.00277015 27199 MinXSS-2 1 43758U 18099A 26121.72809594 .00038822 00000-0 85225-3 0 9998 2 43758 97.4563 196.7603 0008600 81.7544 278.4679 15.43906026406951 AO-95 1 43770U 18099N 26121.72321076 .00014357 00000-0 56496-3 0 9991 2 43770 97.4418 182.1700 0010025 144.9878 215.2020 15.25699086406131 SNUSat 2 1 43782U 18099AA 26121.63793377 .00010712 00000-0 48332-3 0 9992 2 43782 97.4099 175.7534 0012039 99.8182 260.4413 15.21115873405955 SnugLite 1 43784U 18099AC 26121.67208078 .00014435 00000-0 56085-3 0 9997 2 43784 97.3907 176.4372 0004575 98.0138 262.1619 15.26157906406226 ITASat 1 1 43786U 18099AE 26121.63786282 .00008606 00000-0 41991-3 0 9996 2 43786 97.4064 174.0905 0013757 149.6187 210.5848 15.18450135405847 EAGLET 1 1 43790U 18099AJ 26121.55168598 .00005434 00000-0 31454-3 0 9995 2 43790 97.4270 172.4586 0012339 141.2903 218.9215 15.12578478405280 ESEO 1 43792U 18099AL 26121.68022955 .00001167 00000-0 88291-4 0 9998 2 43792 97.4007 161.0555 0013389 127.1043 233.1410 15.04098257404811 JO-97 1 43803U 18099AX 26121.42128916 .00024154 00000-0 77797-3 0 9996 2 43803 97.4161 184.1404 0007197 84.4383 275.7679 15.32171186406462 Suomi 100 1 43804U 18099AY 26121.64059721 .00014973 00000-0 56017-3 0 9998 2 43804 97.4222 182.2376 0011690 88.1372 272.1205 15.27352463406313 ISAT 1 43879U 18111D 26121.76197588 .00080250 00000-0 10590-2 0 9998 2 43879 97.5908 53.6960 0008769 104.8169 255.4058 15.58080890403920 UWE-4 1 43880U 18111E 26121.76651345 .00036856 00000-0 82481-3 0 9998 2 43880 97.5865 48.1262 0010382 122.7935 237.4314 15.43326843403618 Sparrow 1 43881U 18111F 26121.81344250 .00092065 00000-0 97554-3 0 9990 2 43881 97.6135 58.6885 0007274 122.9679 237.2280 15.63792187404105 Prox-1 1 44339U 19036A 26121.51456044 .00017318 00000-0 17434-2 0 9994 2 44339 23.9955 65.7378 0006468 210.4258 149.5866 14.89497691366507 Taurus 1 1 44530U 19059C 26121.87857765 .00011577 00000-0 18666-2 0 9995 2 44530 98.6373 283.8626 0009834 99.7456 260.4860 14.71593224351837 TO-108 1 44881U 19093C 26121.86699156 .00000293 00000-0 39161-4 0 9997 2 44881 97.7547 195.2269 0012239 236.9097 123.0944 14.86440372344534 RS-44 1 44909U 19096E 26121.72177339 .00000019 00000-0 38948-4 0 9998 2 44909 82.5257 10.5836 0216410 252.9717 104.7572 12.79747989296407 SALSAT 1 46495U 20068K 26121.56290308 .00009759 00000-0 34759-3 0 9990 2 46495 97.8855 121.8158 0011683 104.4237 255.8298 15.29104891308233 CSS (TIANHE-1) 1 48274U 21035A 26121.78450867 .00021864 00000-0 23571-3 0 9995 2 48274 41.4675 244.4722 0005904 312.5812 47.4529 15.63133362285918 CUTE 1 49263U 21088D 26121.80142044 .00082336 00000-0 54410-3 0 9997 2 49263 97.4205 217.3101 0000618 150.7343 209.3957 15.75337806255211 TeikyoSat 4 1 49396U 21102B 26121.64961346 .00002112 00000-0 13596-3 0 9991 2 49396 97.3704 152.9389 0013766 93.5552 266.7252 15.09338521245707 Z-Sat 1 49399U 21102E 26121.85996259 .00004376 00000-0 21817-3 0 9997 2 49399 97.3363 158.5916 0018130 52.9064 307.3824 15.17906116246412 KOSEN 1 1 49402U 21102H 26121.79670686 .00009591 00000-0 37248-3 0 9997 2 49402 97.3227 164.8676 0014049 19.4508 340.7264 15.26193985246944 HO-113 1 50466U 21131B 26121.82067097 .00000548 00000-0 18313-3 0 9996 2 50466 98.4957 214.4682 0003142 225.3327 134.7606 14.41312025228435 SNUGLITE 2 1 52899U 22065F 26121.63317933 .00001163 00000-0 22986-3 0 9996 2 52899 98.2136 266.5653 0007924 161.1616 198.9881 14.64258225204189 UmKA 1 (RS40S) 1 57172U 23091G 26121.83072924 .00006411 00000-0 29786-3 0 9991 2 57172 97.5084 180.7166 0011200 282.1032 77.8948 15.20292075156961 CubeBel-2 (EU11S) 1 57175U 23091K 26121.83660455 .00013297 00000-0 48754-3 0 9992 2 57175 97.5083 184.6725 0008395 278.1324 81.8962 15.28081101157222 RS-38S 1 57189U 23091Z 26121.80610933 .00017712 00000-0 53041-3 0 9991 2 57189 97.5117 190.4106 0006600 225.0011 135.0698 15.34564138157573 SONATE-2 1 59112U 24043Q 26121.67207617 .00044572 00000-0 65251-3 0 9993 2 59112 97.5482 269.3545 0006480 18.4812 341.6676 15.55442208120654 GRBBeta 1 60237U 24128C 26121.68986963 .00004680 00000-0 32415-3 0 9998 2 60237 61.9921 19.3545 0046504 124.8780 235.6698 15.06261122 99265 Curium One 1 60242U 24128H 26121.81500067 .00008983 00000-0 52313-3 0 9995 2 60242 61.9804 9.9225 0046048 121.5121 239.0485 15.11764099 99446 ROBUSTA-3A 1 60243U 24128J 26121.82055993 .00008948 00000-0 53242-3 0 9993 2 60243 61.9884 12.1214 0047132 118.9495 241.6339 15.10950360 99419 CatSat 1 60246U 24125J 26121.77400182 .00057210 00000-0 87617-3 0 9990 2 60246 97.2131 333.8402 0022817 358.3268 1.7906 15.53864086100179 HYPERVIEW-1G (RS66S) 1 61772U 24199AP 26121.73773146 .00098785 00000-0 95472-3 0 9995 2 61772 97.2969 359.4703 0008972 92.7905 267.4382 15.66082709127383 AO-123 1 61781U 24199AY 26121.89059625 .00008624 00000-0 25540-3 0 9993 2 61781 97.3063 350.9873 0015775 112.7115 247.5797 15.34991302126828 JINJUSat 1B 1 63210U 25052A 26121.66334795 .00020652 00000-0 66853-3 0 9997 2 63210 97.4057 18.3974 0001508 220.0628 140.0502 15.32065063 62979 NUSHSAT 1 1 63211U 25052B 26121.64574343 .00024796 00000-0 75037-3 0 9998 2 63211 97.4038 18.7986 0001139 220.8378 139.2779 15.34179865 63005 TEVEL2-4 1 63213U 25052D 26121.66510780 .00023292 00000-0 73184-3 0 9998 2 63213 97.3958 18.0272 0000261 286.1694 73.9519 15.32995891 62984 TEVEL2-5 1 63214U 25052E 26121.68074362 .00022075 00000-0 69709-3 0 9998 2 63214 97.3955 18.0031 0000337 285.9180 74.2025 15.32846989 62985 TEVEL2-6 1 63215U 25052F 26121.69194572 .00021960 00000-0 69430-3 0 9999 2 63215 97.3958 17.9994 0000425 288.1650 71.9546 15.32809319 62988 TEVEL2-1 1 63217U 25052H 26121.64043744 .00021721 00000-0 69717-3 0 9993 2 63217 97.3934 17.6251 0000908 340.0699 20.0507 15.32327829 62965 TEVEL2-3 1 63218U 25052J 26120.65708406 .00018565 00000-0 59650-3 0 9994 2 63218 97.3940 16.6597 0001080 343.6471 16.4736 15.32327642 62814 TEVEL2-2 1 63219U 25052K 26121.64095953 .00022031 00000-0 70695-3 0 9996 2 63219 97.3934 17.6271 0000932 338.6611 21.4592 15.32333572 62964 TEVEL2-9 1 63237U 25052AD 26121.69107001 .00019755 00000-0 67156-3 0 9996 2 63237 97.3997 17.1480 0004640 322.6358 37.4560 15.30485424 62910 TEVEL2-7 1 63238U 25052AE 26121.65823257 .00020356 00000-0 69742-3 0 9993 2 63238 97.4000 17.0496 0004748 322.6418 37.4492 15.30224938 62903 TEVEL2-8 1 63239U 25052AF 26121.66596022 .00020523 00000-0 70349-3 0 9993 2 63239 97.3994 17.0358 0004740 324.0702 36.0219 15.30207179 62906 HYDRA-W 1 63490U 25052BL 26113.93882235 .05662091 24406-5 29537-2 0 9997 2 63490 97.3690 18.2798 0008685 203.5899 156.4993 16.20186780 62336 HADES-ICM (SO-125) 1 63492U 25052BN 26121.69252361 .00520626 00000-0 24700-2 0 9990 2 63492 97.3817 24.8740 0005024 154.3976 205.7542 15.81594398 63447 SPIRONE 1 66657U 25274H 26121.75644698 .00003096 00000-0 30021-3 0 9998 2 66657 97.7478 51.7219 0012566 161.1019 199.0670 14.93354617 23299 K-HERO 1 66660U 25274L 26121.77417617 .00001893 00000-0 18363-3 0 9991 2 66660 97.7486 51.8658 0014187 166.7595 193.4000 14.93786026 23301 SNUGLITE-III DURI 1 66661U 25274M 26121.76350014 .00002096 00000-0 20241-3 0 9992 2 66661 97.7480 51.8740 0014805 168.0965 192.0608 14.93844758 23307 SilverSat 1 66909U 98067XV 26113.44966717 .07226154 12288-4 11979-2 0 9998 2 66909 51.6027 190.0749 0007952 333.4666 26.5949 16.32457272 22308 SAKHACUBE-CHOLBON 1 67290U 25313AU 26121.75285200 .00012778 00000-0 52883-3 0 9993 2 67290 97.3949 197.3960 0010366 152.6522 207.5263 15.24027432 18904 RS95S (QMR-KWT-2) 1 67291U 25313AV 26121.71233316 .00017211 00000-0 68941-3 0 9990 2 67291 97.3945 197.4481 0010212 152.0159 208.1630 15.25061144 18904 Ten-Koh2 1 68261U 25241B 26121.57650527 .00007400 00000-0 32122-3 0 9990 2 68261 51.6490 181.3836 0005845 354.7940 5.2976 15.23298921 7800 JACK-002 1 68417U 26067B 26121.85419542 .00007752 00000-0 37559-3 0 9990 2 68417 97.4540 81.0491 0004096 85.9487 274.2216 15.18808121 4913 DISCO 2 1 68431U 26067R 26121.86384419 .00009089 00000-0 44504-3 0 9994 2 68431 97.4577 81.0523 0003749 125.0032 235.1554 15.18389599 4915 HADES-SA (SpinnyONE) 1 68446U 26067AG 26121.82295017 .00019832 00000-0 98999-3 0 9995 2 68446 97.4388 80.8800 0005281 219.7227 140.3621 15.17520020 4890 PARUS-6U1 1 68456U 26067AS 26121.82542610 .00007091 00000-0 36176-3 0 9993 2 68456 97.4527 80.9304 0004523 207.1768 152.9229 15.17029569 4902 SAL-E 1 68458U 26067AU 26121.82541973 .00009515 00000-0 48323-3 0 9996 2 68458 97.4453 80.9011 0004416 218.9516 141.1400 15.17095345 4905 FSI-SAT 2 1 68792U 26088A 26115.68414791 .00000849 00000-0 61705-4 0 9995 2 68792 97.4990 266.2992 0012809 287.5176 72.4651 15.06389719 389 OrigamiSat 2 1 68795U 26088D 26113.82356135 .00001590 00000-0 10758-3 0 9994 2 68795 97.5008 264.4888 0014430 266.4157 93.5420 15.07861282 103 ARICA 2 1 68796U 26088E 26113.82352201 .00001593 00000-0 10752-3 0 9992 2 68796 97.4989 264.4863 0014541 264.6248 95.3321 15.07951070 103 WASEDA-SAT-ZERO-II 1 68797U 26088F 26113.82350997 .00001596 00000-0 10767-3 0 9992 2 68797 97.5012 264.4822 0014814 262.4592 97.4954 15.07975758 102 MANGARO-II-Piscus 1 68798U 26088G 26113.82334568 .00001591 00000-0 10611-3 0 9992 2 68798 97.4999 264.4888 0017891 266.9056 93.0125 15.08353756 101 IO-86 1 40931U 25360.30710720 .00000000 00000-0 12800-3 0 00 2 40931 6.0006 332.5373 0012733 338.8432 8.1437 14.79075515 01 LILIUM-4 1 71922C 26067AC 26089.50133053 -.00014632 00000+0 -74472-3 0 04 2 71922 97.4497 49.1617 0004341 5.9603 355.7042 15.16896692 16 /EX